Starlink 31899

operational
NORAD ID: 59850 Int'l Des: 2024-097 Owner: SPXS Country: US Constellation: starlink
LEOCIRCULAR

Starlink 31899について

説明を読み込み中...

リアルタイム位置

3D地球を読み込み中...

次回通過

高度履歴

Altitude vs Time

uPlot chart will show altitude changes over time

軌道要素

1 59850U 24097R 25351.14615754 .00000165 00000-0 15538-4 0 9996
2 59850 43.0021 20.4533 0001577 261.4598 98.6075 15.27590185 89297
Epoch: Dec 17, 2025 • Age: 17 hours

現在のステータス

高度 484.1 km
速度 7.63 km/s
衛星直下点 28.08°N, 9.91°E
打ち上げ日 May 23, 2024
運用期間 1.5 years
タイプ internet

技術仕様

分類 Payload
質量 730.00 kg
乾燥質量 700.00 kg
総質量 730.00 kg
長さ 0.30 m
直径 4.10 m
スパン 29.00 m
形状 Box + pan
製造者 SPXS
バスタイプ Starlink V2M
フェーズステータス In Orbit
所有者/国 SPXS/US

大規模コンステレーション

Loading constellations...